Regional Weather Roundup
Issued by NWS

Home | Current Version | Previous Version | Text Only | Print | Product List | Glossary Off
Versions: 1 2 3 4 5 6 7 8 9 10 11 12 13 14 15 16 17 18 19 20 21 22 23 24 25 26 27 28 29 30 31 32 33 34 35 36 37 38 39 40 41 42 43 44 45 46 47 48 49 50

000
ASUS43 KLOT 170004
RWRIL

ILLINOIS REGIONAL WEATHER ROUNDUP
NATIONAL WEATHER SERVICE CHICAGO/ROMEOVILLE IL
700 PM CDT MON OCT 16 2017

NOTE: "FAIR" INDICATES FEW OR NO CLOUDS BELOW 12,000 FEET WITH NO
SIGNIFICANT WEATHER AND/OR OBSTRUCTIONS TO VISIBILITY.

* THESE STATIONS ARE NOT UNDER NWS QUALITY CONTROL. THEY ALSO MAY NOT
  REPORT WEATHER SUCH AS PRECIPITATION OR FOG.

ILZ001-002-007-009-015-016-024-170100-
NORTHWEST ILLINOIS

CITY           SKY/WX    TMP DP  RH WIND       PRES   REMARKS
MOLINE         CLEAR     52  40  63 S5        30.21S
6HR MIN TEMP:  52; 6HR MAX TEMP:  66;

STERLING*      CLEAR     51  41  68 CALM        N/A
$$

ILZ003-004-008-010-011-017-018-170100-
NORTH CENTRAL ILLINOIS

CITY           SKY/WX    TMP DP  RH WIND       PRES   REMARKS
ROCKFORD       CLEAR     53  38  56 S6        30.21F
6HR MIN TEMP:  53; 6HR MAX TEMP:  63;

FREEPORT*      CLEAR     51  37  57 SW5       30.21F
ROCHELLE*      CLEAR     50  39  65 S6        30.22S
$$

ILZ005-006-012>014-019>023-170100-
NORTHEAST ILLINOIS

CITY           SKY/WX    TMP DP  RH WIND       PRES   REMARKS
CHICAGO-OHARE  CLEAR     57  36  45 SW5       30.21S
6HR MIN TEMP:  57; 6HR MAX TEMP:  63;

CHICAGO-MIDWAY CLEAR     58  36  43 SW7       30.22S
6HR MIN TEMP:  58; 6HR MAX TEMP:  63;

AURORA         CLEAR     52  39  61 SW5       30.23R
6HR MIN TEMP:  52; 6HR MAX TEMP:  63;

LANSING*       CLEAR     51  41  70 CALM      30.24R
JOLIET*        CLEAR     51  42  71 CALM      30.23S
WAUKEGAN       CLEAR     47  40  76 CALM      30.20S
6HR MIN TEMP:  47; 6HR MAX TEMP:  62;

DUPAGE AIRPORT CLEAR     51  39  63 SW5       30.22R
6HR MIN TEMP:  51; 6HR MAX TEMP:  62;

KANKAKEE*      CLEAR     55  36  48 SW5       30.25S
WHEELING       CLEAR     58  37  45 S3        30.22F
6HR MIN TEMP:  58; 6HR MAX TEMP:  63;

NORTHERLY ISL    N/A     60  32  34 S3          N/A
$$

LMZ740>746-170100-
SOUTHERN LAKE MICHIGAN

STATION/POSITION SKY/WX   TEMP    WIND        PRES    VSBY  WAVE
                          AIR SEA DIR/SP/G                  HT/PER
                          (F)     (DEG/KT/KT) (MB)    (MI)  (FT/S)
SOUTHERN BUOY              58 62  220/ 10/ 12 1023.2          1/ 3
WILMETTE HARBOR            58 58  220/  4/  6   N/A           1/ 5
HARRISON CRIB              62     250/  8/  9   N/A
BURNHAM HARBOR             60     220/  4/ 12   N/A
CALUMET HARBOR             59     210/  2/  3 1022.8S
BURNS HARBOR               60     220/  6/  8 1024.0S
MICHIGAN CITY              59     180/  6/  6   N/A
MICHIGAN CITY 6N           58 58  190/  4/  4   N/A           1/ 6
ST. JOSEPH                 57 58  180/  8/ 10 1023.9F         2/ 5
$$

ILZ025>027-034>036-040-047-049-050-058-095>099-170100-
WEST-CENTRAL ILLINOIS

CITY           SKY/WX    TMP DP  RH WIND       PRES   REMARKS
QUINCY         CLEAR     58  38  47 S5        30.24F
GALESBURG*     CLEAR     52  39  61 CALM      30.24S
MACOMB*        CLEAR     54  37  53 SW3       30.26S
JACKSONVILLE*  CLEAR     53  39  58 S5        30.25F
$$

ILZ028>032-037-038-041>044-048-051>054-059>061-170100-
CENTRAL ILLINOIS

CITY           SKY/WX    TMP DP  RH WIND       PRES   REMARKS
BLOOMINGTON    CLEAR     55  37  50 SW5       30.27S
DECATUR        CLEAR     57  37  47 SW5       30.27S
PEORIA         CLEAR     57  38  48 CALM      30.24S
6HR MIN TEMP:  55; 6HR MAX TEMP:  65;

LACON*         CLEAR     50  39  66 CALM      30.23S
LINCOLN*       CLEAR     57  38  49 CALM      30.26R
SPRINGFIELD    CLEAR     56  40  55 SW3       30.27R
6HR MIN TEMP:  55; 6HR MAX TEMP:  69;

TAYLORVILLE    NOT AVBL
$$

ILZ033-039-045-046-055>057-062-063-170100-
EAST-CENTRAL ILLINOIS

CITY           SKY/WX    TMP DP  RH WIND       PRES   REMARKS
CHAMPAIGN      CLEAR     50  38  63 S6        30.27S
DANVILLE*      CLEAR     52  37  56 CALM      30.24F
MATTOON        CLEAR     54  44  69 S3        30.27F
PARIS*         CLEAR     49  39  69 SW5       30.29S
$$

ILZ079-100>102-170100-
SOUTHWEST ILLINOIS

CITY           SKY/WX    TMP DP  RH WIND       PRES   REMARKS
ALTON          CLEAR     52  43  71 CALM      30.29S
BELLEVILLE     CLEAR     55  46  72 CALM      30.28S
CAHOKIA*       CLEAR     56  39  53 CALM      30.29S
SPARTA*        CLEAR     54  41  62 CALM      30.31S
$$

ILZ064>066-069>071-074>076-080>082-084>086-088>090-092>094-170100-
SOUTH-CENTRAL ILLINOIS

CITY           SKY/WX    TMP DP  RH WIND       PRES   REMARKS
CARBONDALE     CLEAR     50  43  77 CALM      30.31R
6HR MIN TEMP:  50; 6HR MAX TEMP:  66;

MARION         CLEAR     50  45  81 N6        30.31S
MT. VERNON     CLEAR     47  44  90 CALM      30.31R
CENTRALIA*     CLEAR     53  41  65 CALM      30.30R
METROPOLIS*    CLEAR     51  41  67 CALM      30.32R
$$

ILZ067-068-072-073-078-083-087-091-170100-
SOUTHEAST ILLINOIS

CITY           SKY/WX    TMP DP  RH WIND       PRES   REMARKS
LAWRENCEVILLE  CLEAR    N/A N/A N/A CALM      30.31R
FLORA*         CLEAR     58  41  54 CALM      30.31R
FAIRFIELD*     CLEAR     54  41  61 CALM      30.30R
HARRISBURG*    CLEAR     55  42  62 CALM      30.31S
ROBINSON*      CLEAR     47  42  81 CALM      30.31S
CARMI*         CLEAR     52  40  62 CALM      30.30S
$$

ABBREVIATIONS USED IN REMARKS
   TC - TEMPERATURE IN CELSIUS
  WCI - WIND CHILL INDEX
   HX - HEAT INDEX
  VSB - VISIBILITY
$$




USA.gov is the U.S. government's official web portal to all federal, state and local government web resources and services.